TimeEDT,TemperatureF,Dew PointF,Humidity,Sea Level PressureIn,VisibilityMPH,Wind Direction,Wind SpeedMPH,Gust SpeedMPH,PrecipitationIn,Events,Conditions,WindDirDegrees,DateUTC
12:53 AM,46.9,43.0,86,30.18,10.0,Calm,Calm,-,N/A,,Clear,0,2013-10-08 04:53:00
1:53 AM,45.0,42.1,90,30.19,10.0,Calm,Calm,-,N/A,,Clear,0,2013-10-08 05:53:00
2:53 AM,45.0,42.1,90,30.20,10.0,Calm,Calm,-,N/A,,Scattered Clouds,0,2013-10-08 06:53:00
3:53 AM,44.1,41.0,89,30.20,10.0,Calm,Calm,-,N/A,,Clear,0,2013-10-08 07:53:00
4:19 AM,44.6,39.2,81,30.19,10.0,Calm,Calm,-,N/A,,Partly Cloudy,0,2013-10-08 08:19:00
4:53 AM,42.1,39.9,92,30.21,2.5,Calm,Calm,-,N/A,,Partly Cloudy,0,2013-10-08 08:53:00
5:03 AM,42.8,39.2,87,30.20,8.0,Calm,Calm,-,N/A,,Clear,0,2013-10-08 09:03:00
5:17 AM,42.8,39.2,87,30.21,2.5,Calm,Calm,-,N/A,,Scattered Clouds,0,2013-10-08 09:17:00
5:21 AM,42.8,39.2,87,30.21,1.0,Calm,Calm,-,N/A,,Mist,0,2013-10-08 09:21:00
5:29 AM,42.8,39.2,87,30.21,0.5,Calm,Calm,-,N/A,Fog,Fog,0,2013-10-08 09:29:00
5:53 AM,41.0,39.9,96,30.23,0.8,Calm,Calm,-,N/A,,Mist,0,2013-10-08 09:53:00
5:59 AM,42.8,39.2,87,30.22,1.2,Calm,Calm,-,N/A,,Mostly Cloudy,0,2013-10-08 09:59:00
6:08 AM,42.8,39.2,87,30.23,1.8,Calm,Calm,-,N/A,,Scattered Clouds,0,2013-10-08 10:08:00
6:12 AM,41.0,39.2,93,30.23,3.0,Calm,Calm,-,N/A,,Scattered Clouds,0,2013-10-08 10:12:00
6:22 AM,42.8,39.2,87,30.23,8.0,Calm,Calm,-,N/A,,Mostly Cloudy,0,2013-10-08 10:22:00
6:33 AM,41.0,39.2,93,30.24,2.5,Calm,Calm,-,N/A,,Scattered Clouds,0,2013-10-08 10:33:00
6:42 AM,41.0,39.2,93,30.24,1.0,Calm,Calm,-,N/A,,Mist,0,2013-10-08 10:42:00
6:49 AM,41.0,39.2,93,30.24,0.5,Calm,Calm,-,N/A,Fog,Fog,0,2013-10-08 10:49:00
6:53 AM,41.0,39.0,93,30.26,1.2,Calm,Calm,-,N/A,,Partly Cloudy,0,2013-10-08 10:53:00
6:56 AM,41.0,39.2,93,30.25,3.0,Calm,Calm,-,N/A,,Partly Cloudy,0,2013-10-08 10:56:00
7:12 AM,41.0,39.2,93,30.26,2.0,Calm,Calm,-,N/A,,Partly Cloudy,0,2013-10-08 11:12:00
7:21 AM,41.0,39.2,93,30.26,10.0,Calm,Calm,-,N/A,,Partly Cloudy,0,2013-10-08 11:21:00
7:35 AM,41.0,39.2,93,30.27,0.5,Calm,Calm,-,N/A,Fog,Fog,0,2013-10-08 11:35:00
7:53 AM,42.1,41.0,96,30.29,0.2,Calm,Calm,-,N/A,Fog,Fog,0,2013-10-08 11:53:00
8:53 AM,45.0,43.0,93,30.31,0.8,Calm,Calm,-,N/A,,Overcast,0,2013-10-08 12:53:00
9:26 AM,46.4,46.4,100,30.31,1.2,Calm,Calm,-,N/A,,Mostly Cloudy,0,2013-10-08 13:26:00
9:30 AM,48.2,46.4,93,30.31,3.0,Calm,Calm,-,N/A,,Mostly Cloudy,0,2013-10-08 13:30:00
9:45 AM,50.0,46.4,87,30.31,10.0,Calm,Calm,-,N/A,,Partly Cloudy,0,2013-10-08 13:45:00
9:53 AM,52.0,46.9,83,30.32,10.0,Calm,Calm,-,N/A,,Partly Cloudy,0,2013-10-08 13:53:00
10:53 AM,61.0,46.9,60,30.31,10.0,Variable,4.6,-,N/A,,Clear,0,2013-10-08 14:53:00
11:53 AM,64.0,45.0,50,30.31,10.0,East,8.1,-,N/A,,Clear,80,2013-10-08 15:53:00
12:53 PM,64.9,43.0,45,30.30,10.0,East,6.9,-,N/A,,Partly Cloudy,100,2013-10-08 16:53:00
1:53 PM,66.0,42.1,42,30.28,10.0,Variable,3.5,-,N/A,,Clear,0,2013-10-08 17:53:00
2:53 PM,68.0,42.1,39,30.27,10.0,East,5.8,-,N/A,,Clear,90,2013-10-08 18:53:00
3:53 PM,68.0,43.0,40,30.26,10.0,SSE,6.9,-,N/A,,Clear,150,2013-10-08 19:53:00
4:53 PM,68.0,43.0,40,30.26,10.0,ESE,4.6,-,N/A,,Clear,110,2013-10-08 20:53:00
5:53 PM,66.9,42.1,40,30.26,10.0,SE,4.6,-,N/A,,Clear,130,2013-10-08 21:53:00
6:53 PM,61.0,45.0,56,30.27,10.0,Calm,Calm,-,N/A,,Clear,0,2013-10-08 22:53:00
7:53 PM,54.0,46.0,75,30.28,10.0,Calm,Calm,-,N/A,,Clear,0,2013-10-08 23:53:00
8:53 PM,51.1,46.0,83,30.29,10.0,Calm,Calm,-,N/A,,Clear,0,2013-10-09 00:53:00
9:53 PM,46.9,45.0,93,30.29,10.0,Calm,Calm,-,N/A,,Clear,0,2013-10-09 01:53:00
10:53 PM,46.9,44.1,90,30.30,10.0,Calm,Calm,-,N/A,,Clear,0,2013-10-09 02:53:00
11:53 PM,46.0,43.0,89,30.30,10.0,Calm,Calm,-,N/A,,Clear,0,2013-10-09 03:53:00